Location: ??? ???
(33.4974°N, 35.4618°E)
Time: 12:00:57
(UTC+00:00)

CZ-2D R/B - Pass Details

Date: 29 October 2020
Orbit: 521 x 537 km, 97.4° (Epoch: 27 November)

Event Time Altitude Azimuth Distance (km) Brightness Sun altitude
Rises 15:42:05 0° 152° (SSE) 2,649 6.6 -11.7°
Reaches altitude 10° 15:44:15 10° 145° (SE) 1,761 5.6 -12.1°
Maximum altitude 15:47:50 40° 75° (ENE) 779 3.6 -12.9°
Drops below altitude 10° 15:51:25 10° 5° (N) 1,766 5.8 -13.6°
Sets 15:53:35 0° 358° (N) 2,656 6.8 -14.1°
